Location: PSU-Greenbush Astrophysical Observatory
(37.5140°N, 94.9880°W)
Time: 19:12:10
(UTC-06:00)

Vanguard 3 - All Passes

Search period start: 27 January 2020 00:00
Search period end: 06 February 2020 00:00
Orbit: 507 x 3264 km, 33.4° (Epoch: 27 January)

Date Brightness Start Highest point End Pass type
(mag) Time Alt. Az. Time Alt. Az. Time Alt. Az.
27 Jan - 13:37:40 10° S 13:48:38 21° SE 14:01:13 10° E daylight
27 Jan - 15:45:34 10° SW 16:02:35 51° SSE 16:20:36 10° E daylight
27 Jan - 17:59:07 10° WSW 18:18:59 74° S 18:35:35 10° E visible
27 Jan - 20:15:56 10° W 20:35:34 74° S 20:48:36 10° ESE visible
27 Jan - 22:34:13 10° W 22:49:45 46° SSW 22:59:16 10° SE visible
28 Jan - 00:56:28 10° WSW 01:00:34 12° SW 01:04:02 10° SSW visible
28 Jan - 14:32:00 10° SSW 14:46:28 37° SE 15:03:27 10° E daylight
28 Jan - 16:43:17 10° WSW 17:01:49 66° SSE 17:20:02 10° E daylight
28 Jan - 18:58:37 10° W 19:18:49 78° S 19:34:10 10° E visible
28 Jan - 21:16:11 10° W 21:34:34 61° SSW 21:46:14 10° SE visible
28 Jan - 23:35:28 10° W 23:47:03 27° SW 23:54:55 10° S visible
29 Jan - 13:20:05 10° S 13:31:10 24° SE 13:44:37 10° E daylight
29 Jan - 15:28:31 10° SW 15:45:01 54° SSE 16:03:43 10° E daylight
29 Jan - 17:42:01 10° WSW 18:01:35 76° S 18:19:03 10° E visible
29 Jan - 19:58:32 10° W 20:18:26 72° SSW 20:32:24 10° ESE visible
29 Jan - 22:16:44 10° W 22:32:45 43° SW 22:43:02 10° SSE visible
30 Jan - 00:40:39 10° WSW 00:43:41 11° SW 00:46:25 10° SW visible
30 Jan - 12:12:30 10° SE 12:16:38 11° SE 12:21:07 10° ESE daylight
30 Jan - 14:14:56 10° SSW 14:28:56 40° SE 14:46:25 10° E daylight
30 Jan - 16:26:20 10° WSW 16:44:19 69° SSE 17:03:15 10° E daylight
30 Jan - 18:41:25 10° W 19:01:31 78° S 19:17:46 10° ESE visible
30 Jan - 20:58:42 10° W 21:17:27 59° SSW 21:29:59 10° SE visible
30 Jan - 23:18:17 10° W 23:30:03 25° SW 23:38:21 10° S visible
31 Jan - 13:02:49 10° S 13:13:44 26° SE 13:27:44 10° E daylight
31 Jan - 15:11:40 10° SW 15:27:29 58° SSE 15:46:41 10° E daylight
31 Jan - 17:25:03 10° WSW 17:44:09 77° S 18:02:25 10° E daylight
31 Jan - 19:41:13 10° W 20:01:11 71° SSW 20:16:02 10° ESE visible
31 Jan - 21:59:18 10° W 22:15:37 41° SW 22:26:38 10° SSE visible
01 Feb - 11:53:49 10° SSE 11:59:22 13° SE 12:05:48 10° ESE daylight
01 Feb - 13:58:06 10° SSW 14:11:28 44° SE 14:29:15 10° E daylight
01 Feb - 16:09:33 10° WSW 16:26:51 71° SSE 16:46:19 10° E daylight
01 Feb - 18:24:21 10° W 18:44:09 77° S 19:01:16 10° ESE visible
01 Feb - 20:41:17 10° W 21:00:13 56° SSW 21:13:36 10° SE visible
01 Feb - 23:01:11 10° W 23:12:55 23° SW 23:21:36 10° S visible
02 Feb - 12:45:50 10° S 12:56:23 29° SE 13:10:40 10° E daylight
02 Feb - 14:55:01 10° SW 15:10:02 61° SSE 15:29:30 10° E daylight
02 Feb - 17:08:13 10° WSW 17:26:43 78° S 17:45:40 10° E daylight
02 Feb - 19:24:00 10° W 19:43:51 68° SSW 19:59:34 10° ESE visible
02 Feb - 21:41:55 10° W 21:58:22 38° SW 22:10:04 10° SSE visible
03 Feb - 11:36:01 10° SSE 11:42:11 15° SE 11:49:40 10° E daylight
03 Feb - 13:41:27 10° SSW 13:54:05 47° SE 14:11:57 10° E daylight
03 Feb - 15:52:55 10° WSW 16:09:24 73° SSE 16:29:18 10° E daylight
03 Feb - 18:07:24 10° W 18:26:44 76° S 18:44:37 10° ESE visible
03 Feb - 20:23:59 10° W 20:42:51 53° SSW 20:57:03 10° SE visible
03 Feb - 22:44:13 10° W 22:55:41 21° SW 23:04:36 10° S visible
04 Feb - 12:29:05 10° SSW 12:39:08 31° SE 12:53:27 10° E daylight
04 Feb - 14:38:30 10° SW 14:52:40 64° SSE 15:12:14 10° E daylight
04 Feb - 16:51:32 10° W 17:09:18 78° S 17:28:48 10° E daylight
04 Feb - 19:06:53 10° W 19:26:24 66° SSW 19:42:57 10° SE visible
04 Feb - 21:24:40 10° W 21:41:00 35° SW 21:53:19 10° SSE visible
05 Feb - 11:18:44 10° SSE 11:25:05 17° SE 11:33:09 10° E daylight
05 Feb - 13:25:00 10° SW 13:36:49 49° SSE 13:54:32 10° E daylight
05 Feb - 15:36:26 10° WSW 15:52:03 75° S 16:12:10 10° E daylight
05 Feb - 17:50:34 10° W 18:09:17 74° SSW 18:27:51 10° ESE visible
05 Feb - 20:06:46 10° W 20:25:24 50° SSW 20:40:21 10° SE visible
05 Feb - 22:27:29 10° W 22:38:23 19° SW 22:47:18 10° SSW visible
